Location: Ammerl�gen
(47.2167°N, 9.6000°E)
Time: 04:03:50
(UTC+00:00)

NOAA 19 - Pass Details

Date: 02 December 2021
Orbit: 841 x 860 km, 99.2° (Epoch: 16 January)

Event Time Altitude Azimuth Distance (km) Brightness Sun altitude
Rises 05:46:48 0° 28° (NNE) 3,428 8.5 -10.2°
Reaches altitude 10° 05:49:55 10° 46° (NE) 2,491 8.0 -9.7°
Maximum altitude 05:53:45 19° 91° (E) 1,935 8.1 -9.1°
Drops below altitude 10° 05:57:33 10° 135° (SE) 2,486 8.9 -8.5°
Sets 06:00:39 0° 152° (SSE) 3,419 9.3 -8.0°
